TimeCST,TemperatureF,Dew PointF,Humidity,Sea Level PressureIn,VisibilityMPH,Wind Direction,Wind SpeedMPH,Gust SpeedMPH,PrecipitationIn,Events,Conditions,WindDirDegrees,DateUTC
12:53 AM,48.9,21.9,35,29.77,8.0,West,16.1,21.9,N/A,,Scattered Clouds,270,2013-01-12 06:53:00
1:09 AM,41.0,33.8,76,29.80,9.0,WNW,17.3,26.5,N/A,,Scattered Clouds,300,2013-01-12 07:09:00
1:53 AM,37.0,30.9,79,29.86,10.0,West,17.3,23.0,N/A,,Mostly Cloudy,280,2013-01-12 07:53:00
2:53 AM,33.1,26.1,75,29.91,10.0,WNW,13.8,23.0,N/A,,Scattered Clouds,290,2013-01-12 08:53:00
3:53 AM,30.9,21.9,69,29.95,10.0,WNW,10.4,18.4,N/A,,Clear,300,2013-01-12 09:53:00
4:53 AM,30.0,21.0,69,29.97,10.0,WNW,11.5,19.6,N/A,,Mostly Cloudy,300,2013-01-12 10:53:00
5:53 AM,27.0,17.1,66,29.99,10.0,NW,9.2,-,N/A,,Partly Cloudy,320,2013-01-12 11:53:00
6:53 AM,26.1,15.1,63,30.02,10.0,NW,6.9,-,N/A,,Partly Cloudy,310,2013-01-12 12:53:00
7:53 AM,25.0,14.0,63,30.04,10.0,NW,6.9,-,N/A,,Scattered Clouds,310,2013-01-12 13:53:00
8:53 AM,26.1,12.0,55,30.06,10.0,NW,10.4,-,N/A,,Mostly Cloudy,320,2013-01-12 14:53:00
9:53 AM,28.0,12.9,53,30.09,10.0,NW,8.1,-,N/A,,Mostly Cloudy,320,2013-01-12 15:53:00
10:53 AM,28.0,12.9,53,30.09,10.0,NW,8.1,-,N/A,,Overcast,320,2013-01-12 16:53:00
11:53 AM,28.9,12.9,51,30.04,10.0,North,10.4,-,N/A,,Overcast,350,2013-01-12 17:53:00
12:53 PM,28.9,12.9,51,30.04,10.0,NNW,15.0,-,N/A,,Overcast,340,2013-01-12 18:53:00
1:53 PM,28.0,12.0,51,30.06,10.0,North,8.1,-,N/A,,Overcast,360,2013-01-12 19:53:00
2:53 PM,27.0,10.0,49,30.03,10.0,North,11.5,-,N/A,,Overcast,360,2013-01-12 20:53:00
3:53 PM,26.1,10.9,53,30.05,10.0,North,12.7,-,N/A,,Overcast,350,2013-01-12 21:53:00
4:53 PM,25.0,10.0,53,30.09,10.0,NW,9.2,-,N/A,,Overcast,320,2013-01-12 22:53:00
5:53 PM,25.0,10.0,53,30.13,10.0,NNW,12.7,-,N/A,,Overcast,330,2013-01-12 23:53:00
6:53 PM,24.8,10.4,54,30.04,10.0,NNW,9.2,-,N/A,,Overcast,340,2013-01-13 00:53:00
7:53 PM,24.1,12.0,60,30.08,10.0,NNW,12.7,-,0.00,,Overcast,340,2013-01-13 01:53:00
8:53 PM,24.1,10.0,55,30.07,10.0,NNW,12.7,-,N/A,,Overcast,340,2013-01-13 02:53:00
9:53 PM,23.0,10.0,58,30.08,10.0,NNW,12.7,-,N/A,,Overcast,340,2013-01-13 03:53:00
10:53 PM,21.9,10.0,60,30.10,10.0,NW,10.4,-,N/A,,Overcast,320,2013-01-13 04:53:00
11:53 PM,19.9,9.0,62,30.11,10.0,NW,17.3,20.7,N/A,,Overcast,320,2013-01-13 05:53:00